Regional Weather Roundup
Issued by NWS

Home | Current Version | Previous Version | Text Only | Print | Product List | Glossary Off
Versions: 1 2 3 4 5 6 7 8 9 10 11 12 13 14 15 16 17 18 19 20 21 22 23 24 25 26 27

000
ASUS45 KBOU 172207
RWRCO

WEATHER ROUNDUP FOR COLORADO
NATIONAL WEATHER SERVICE DENVER/BOULDER CO
400 PM MDT THU AUG 17 2017

NOTE: "FAIR" INDICATES FEW OR NO CLOUDS BELOW 12000 FEET WITH NO
SIGNIFICANT WEATHER AND/OR OBSTRUCTIONS TO VISIBILITY.

COZ001>005-013-030-031-172300-
...NORTHWEST COLORADO...

CITY           SKY/WX    TMP DP  RH WIND       PRES   REMARKS
CRAIG          FAIR      84  28  13 W15G23    30.20F
HAYDEN         FAIR      81  32  17 W16       30.23F
MEEKER         FAIR      79  39  23 S9        30.22F
RABBIT EARS PA MOCLDY    57  34  41 W9G16     30.52F
STEAMBOAT SPGS NOT AVBL
WALDEN         PTSUNNY   75  32  20 W16G24    30.34F
$$

COZ006>008-011-172300-
...WEST CENTRAL VALLEYS...

CITY           SKY/WX    TMP DP  RH WIND       PRES   REMARKS
GRAND JUNCTION FAIR      90  32  12 NW14G23   30.11F
MONTROSE       FAIR      83  33  16 N8        30.19F
EAGLE          PTSUNNY   76  36  23 N13G30    30.27R
RIFLE          FAIR      84  33  16 N8        30.16F
DELTA          FAIR      91  29  11 W10G24    30.15S
NUCLA          FAIR      84  23  10 CALM      30.23S
$$

COZ017>023-064>068-172300-
...SOUTHWEST COLORADO...

CITY           SKY/WX    TMP DP  RH WIND       PRES   REMARKS
DURANGO        FAIR      80  27  14 W13       30.25F
CORTEZ         FAIR      84  27  12 CALM      30.21F
PAGOSA SPRINGS FAIR      78  21  11 SW14G21   30.34F
TELLURIDE      FAIR      69  25  19 CALM      30.46F
WOLF CREEK PAS FAIR      57  30  35 SW14G23   30.69S
$$

COZ009-010-012-014-032>034-037-058>063-172300-
...CENTRAL COLORADO...

CITY           SKY/WX    TMP DP  RH WIND       PRES   REMARKS
ASPEN          FAIR      71  34  25 CALM      30.34F
BUENA VISTA    FAIR      75  27  16 NW20G25   30.33S
COPPER MTN     PTSUNNY   54  30  40 SW16G29   30.64R
BERTHOUD PASS  CLOUDY    39  36  87 NW26G40   30.64F
COTTONWOOD PAS FAIR      72  23  16 W8G16     30.47S
GUNNISON       NOT AVBL
KREMMLING      PTSUNNY   79  32  18 S6        30.31F
LEADVILLE      PTSUNNY   59  34  39 NE10G18   30.48S
MONARCH PASS   FAIR      57  28  33 NW22      30.73F
SALIDA         FAIR      77  32  19 N5        30.36F
SUNLIGHT       CLOUDY    54  30  40 CALM      30.59S
WILKERSON PASS DRIZZLE   54  30  40 W3        30.60S
$$

COZ069>075-172300-
...SAN LUIS VALLEY/SANGRE DE CRISTO MOUNTAINS...

CITY           SKY/WX    TMP DP  RH WIND       PRES   REMARKS
ALAMOSA        FAIR      78  32  18 W8        30.30F
DEL NORTE      PTSUNNY   73  33  23 N7        30.34F
LA VETA PASS   NOT AVBL
SAGUACHE       FAIR      73  32  21 NW21G32   30.33R
$$

COZ035-036-038>040-172300-
...NORTHERN COLORADO FRONT RANGE...

CITY           SKY/WX    TMP DP  RH WIND       PRES   REMARKS
DENVER INTL AP PTSUNNY   84  32  15 NW13G21   30.11F
DMNS CITY PARK   N/A     82  40  22 NW3G14    30.13R
AURORA         PTSUNNY   76  41  28 SW12G18   30.15R
FRONT RANGE AP PTSUNNY   82  36  18 N8        30.14S
ERIE MUNI ARPT FAIR      82  36  19 SW3       30.15S
BOULDER MUN AP FAIR      86  36  16 S10       30.10S
CENTENNIAL     FAIR      81  37  20 N8        30.17R
BROOMFIELD     PTSUNNY   82  36  18 W21G30    30.15S
FORT COLLINS   FAIR      84  44  24 SE12      30.09F
LONGMONT       NOT AVBL
$$

COZ041-046-047-076>085-087-088-172300-
...PIKES PEAK/PALMER DIVIDE AND SOUTHERN FOOTHILLS...

CITY           SKY/WX    TMP DP  RH WIND       PRES   REMARKS
COLO. SPRINGS  PTSUNNY   80  45  28 NE20      30.21S
A. F. ACADEMY  FAIR      78  39  24 NE10      30.20F
SCHRIEVER AFB  FAIR      76  41  28 N9        30.22S
CHEYENNE MTN   FAIR      72  41  32 S7        30.19F
ELLICOTT       FAIR     N/A N/A N/A CALM      30.19F
FALCON         FAIR      71  43  36 NE7       30.27F
FORT CARSON    PTSUNNY   79  44  28 W3        30.15F
LIMON          PTSUNNY   73  44  35 W14G29    30.14R
MONUMENT HILL  FAIR      72  39  30 NW6       30.27S
CANON CITY     SUNNY     86  37  17 N5        30.10F
WALSENBURG     FAIR      90  32  12 W15       30.16F
TRINIDAD       FAIR      82  45  27 S9        30.15F
$$

COZ042>045-048>051-090-091-172300-
...NORTHEAST COLORADO...

CITY           SKY/WX    TMP DP  RH WIND       PRES   REMARKS
GREELEY ARPT   FAIR      78  52  40 SE9       30.09F
AKRON          NOT AVBL
BURLINGTON     FAIR      85  56  37 SW8       30.06F
WRAY           NOT AVBL
YUMA           FAIR      86  14   7 NW7       30.03S
STERLING       FAIR      79  50  36 NW8       30.04S
HOLYOKE        FAIR      84  57  39 S9        30.00F
FORT MORGAN    FAIR      85  36  17 N16G22    30.07R
$$

COZ086-089-092>099-172300-
...SOUTHEAST COLORADO...

CITY           SKY/WX    TMP DP  RH WIND       PRES   REMARKS
PUEBLO         LGT RAIN  87  41  19 SW15G25   30.06F
LA JUNTA       FAIR      91  49  23 SE6       30.05F
LAMAR          FAIR      91  54  28 W8        30.01F
SPRINGFIELD      N/A     81  63  54 S13G23    30.09F
$$




USA.gov is the U.S. government's official web portal to all federal, state and local government web resources and services.